Regional Weather Roundup
Issued by NWS Glasgow, MT

Home | Current Version | Previous Version | Text Only | Print | Product List | Glossary On
Versions: 1 2 3 4 5 6 7 8 9 10 11 12 13 14 15 16 17 18 19 20 21 22 23 24 25 26 27 28 29 30 31 32 33 34 35 36 37 38 39 40 41 42 43 44 45 46 47 48 49 50
000
ASUS45 KGGW 272015
RWRGGW
HOURLY REGIONAL WEATHER ROUNDUP FOR NORTHEAST MONTANA
NATIONAL WEATHER SERVICE GLASGOW MONTANA
200 PM MDT THU AUG 27 2015

NOTE: "FAIR" INDICATES FEW OR NO CLOUDS BELOW 12,000 FEET WITH NO
SIGNIFICANT WEATHER AND/OR OBSTRUCTIONS TO VISISBILITY.

NORTHEAST MONTANA


CITY           SKY/WX    TMP DP  RH WIND       PRES   REMARKS
GLASGOW        SUNNY     85  56  37 SW8       29.92S
PLENTYWOOD       N/A     87  53  31 SE3G12      N/A
WOLF POINT     SUNNY     87  59  38 CALM      29.91F
JORDAN           N/A     88  55  32 VRB5      29.93F
WINNETT          N/A     88  51  28 E1          N/A
SIDNEY         MOSUNNY   82  64  54 CALM      29.93S
GLENDIVE       MOSUNNY   84  63  48 S5        29.94F
MALTA            N/A     87  60  40 NW2         N/A
OPHEIM           N/A    N/A N/A N/A S9        29.61

FORT PECK REPORTS


CITY           SKY/WX    TMP DP  RH WIND       PRES   REMARKS
FORT PECK        N/A     83  63  50 SW5         N/A
THE PINES        N/A     81  57  43 NE3         N/A

SOUTHEAST MONTANA


CITY           SKY/WX    TMP DP  RH WIND       PRES   REMARKS
BILLINGS       CLOUDY    84  52  33 SW15      30.06S
MILES CITY     SUNNY     90  51  26 NW6       29.95F
BAKER          MOSUNNY   87  59  38 VRB6      29.97F
LIVINGSTON     LGT RAIN  75  42  30 W13       30.18R

CENTRAL MONTANA


CITY           SKY/WX    TMP DP  RH WIND       PRES   REMARKS
HAVRE          CLOUDY    81  48  31 SW18      29.95F
LEWISTOWN      CLOUDY    85  44  23 W13       30.07S HAZE
GREAT FALLS    CLOUDY    88  39  17 SW12      30.02F HAZE
CUT BANK       CLOUDY    83  35  18 W15       30.03S HAZE
HELENA         MOSUNNY   78  48  34 N3        30.10F
BUTTE          PTSUNNY   78  36  21 E6        30.21F HAZE
BOZEMAN        CLOUDY    76  46  34 SE14      30.17F

WESTERN MONTANA


CITY           SKY/WX    TMP DP  RH WIND       PRES   REMARKS
MISSOULA       CLOUDY    77  41  27 VRB3      30.07F HAZE
KALISPELL      NOT AVBL

NORTH DAKOTA


CITY           SKY/WX    TMP DP  RH WIND       PRES   REMARKS
WILLISTON      PTSUNNY   82  63  52 VRB5      29.93F
DICKINSON      MOSUNNY   87  56  34 S9        29.93F
MINOT          PTSUNNY   79  62  56 SE7       29.93F
BISMARCK       PTSUNNY   79  67  66 S3        29.95F

SOUTHERN SASKATCHEWAN


CITY           SKY/WX    TMP DP  RH WIND       PRES   REMARKS
REGINA         PTSUNNY   81  61  50 S7        29.89F
MOOSE JAW      MOSUNNY   81  63  54 W7        29.89F SMOKE
ESTEVAN        MOSUNNY   86  59  39 SW5       29.92F
SWIFT CURRENT  MOSUNNY   82  54  36 SW3       29.88F



USA.gov is the U.S. government's official web portal to all federal, state and local government web resources and services.